BAW24E EGKK-EGPD

Flight info

Callsign BAW24E
Flight time N/A
Altitude 38000
Route LAM DCT MOGLI DCT ERKIT N110 UNTAL UP18 ALASO/N0387F240 P18 ADN
Aircraft A320/M-SDE3FGHIRWY/LB1

Departure

Time 2026-04-14 09:22
Airport London Gatwick Airport (EGKK)

Arrival

Time N/A
Airport Aberdeen International Airport (EGPD)
Time Latitude Longitude Altitude Speed Heading
2026-04-14 08:45 51.15877 -0.17308 205 ft 0 kts 348°
2026-04-14 09:11 51.15859 -0.17301 212 ft 4 kts 346°
2026-04-14 09:11 51.15833 -0.17289 213 ft 4 kts 340°
2026-04-14 09:11 51.15808 -0.17272 214 ft 4 kts 322°
2026-04-14 09:12 51.15795 -0.17244 214 ft 2 kts 260°
2026-04-14 09:12 51.15795 -0.17241 214 ft 0 kts 257°
2026-04-14 09:15 51.15794 -0.17245 211 ft 3 kts 257°
2026-04-14 09:15 51.15775 -0.17384 214 ft 15 kts 257°
2026-04-14 09:15 51.15728 -0.17495 211 ft 14 kts 185°
2026-04-14 09:15 51.15622 -0.17461 207 ft 18 kts 168°
2026-04-14 09:16 51.15491 -0.17415 206 ft 20 kts 166°
2026-04-14 09:16 51.15381 -0.17376 215 ft 14 kts 168°
2026-04-14 09:16 51.15296 -0.17418 207 ft 16 kts 252°
2026-04-14 09:16 51.15274 -0.17603 210 ft 19 kts 256°
2026-04-14 09:17 51.15245 -0.17819 204 ft 21 kts 257°
2026-04-14 09:17 51.15211 -0.18066 206 ft 24 kts 255°
2026-04-14 09:17 51.15176 -0.18332 204 ft 25 kts 260°
2026-04-14 09:17 51.15140 -0.18616 206 ft 28 kts 258°
2026-04-14 09:18 51.15098 -0.18928 210 ft 27 kts 257°
2026-04-14 09:18 51.15061 -0.19195 204 ft 26 kts 256°
2026-04-14 09:18 51.15021 -0.19485 207 ft 28 kts 256°
2026-04-14 09:18 51.14977 -0.19801 209 ft 30 kts 258°
2026-04-14 09:19 51.14940 -0.20037 212 ft 12 kts 255°
2026-04-14 09:19 51.14934 -0.20091 204 ft 10 kts 261°
2026-04-14 09:19 51.14913 -0.20276 211 ft 19 kts 258°
2026-04-14 09:19 51.14882 -0.20504 211 ft 22 kts 258°
2026-04-14 09:20 51.14846 -0.20760 204 ft 25 kts 258°
2026-04-14 09:20 51.14825 -0.20922 214 ft 0 kts 256°
2026-04-14 09:20 51.14809 -0.21044 208 ft 23 kts 258°
2026-04-14 09:20 51.14767 -0.21296 208 ft 20 kts 258°
2026-04-14 09:21 51.14687 -0.21386 213 ft 17 kts 157°
2026-04-14 09:21 51.14576 -0.21303 204 ft 18 kts 160°
2026-04-14 09:21 51.14518 -0.21134 208 ft 20 kts 76°
2026-04-14 09:21 51.14553 -0.20877 209 ft 45 kts 76°
2026-04-14 09:22 51.14685 -0.19914 214 ft 130 kts 77°
2026-04-14 09:22 51.14886 -0.18192 412 ft 173 kts 85°
2026-04-14 09:22 51.15110 -0.16275 1388 ft 172 kts 83°
2026-04-14 09:22 51.15375 -0.14415 2119 ft 176 kts 82°
2026-04-14 09:23 51.15660 -0.12409 2519 ft 200 kts 82°
2026-04-14 09:23 51.15986 -0.10089 2946 ft 225 kts 82°
2026-04-14 09:23 51.16372 -0.07533 3500 ft 252 kts 75°
2026-04-14 09:23 51.17313 -0.05078 4191 ft 273 kts 53°
2026-04-14 09:24 51.18508 -0.02682 5171 ft 279 kts 53°
2026-04-14 09:24 51.19734 -0.00192 6177 ft 284 kts 53°
2026-04-14 09:24 51.20939 0.02283 7135 ft 288 kts 52°
2026-04-14 09:24 51.22117 0.04713 8022 ft 291 kts 51°
2026-04-14 09:25 51.23364 0.07295 8954 ft 295 kts 51°
2026-04-14 09:25 51.24558 0.09976 9881 ft 299 kts 56°
2026-04-14 09:25 51.25866 0.12595 10471 ft 309 kts 36°
2026-04-14 09:25 51.27857 0.14034 10758 ft 324 kts
2026-04-14 09:26 51.30102 0.13715 11300 ft 328 kts 340°
2026-04-14 09:26 51.32285 0.12575 12042 ft 333 kts 340°
2026-04-14 09:26 51.34530 0.11574 12813 ft 337 kts 342°
2026-04-14 09:26 51.36822 0.10673 13582 ft 341 kts 344°
2026-04-14 09:27 51.39147 0.09810 14296 ft 346 kts 344°
2026-04-14 09:27 51.41505 0.08940 14985 ft 348 kts 344°
2026-04-14 09:27 51.43871 0.08052 15669 ft 352 kts 343°
2026-04-14 09:27 51.46264 0.07133 16339 ft 355 kts 343°
2026-04-14 09:28 51.48671 0.06191 17017 ft 358 kts 343°
2026-04-14 09:28 51.51100 0.05229 17697 ft 361 kts 343°
2026-04-14 09:28 51.53546 0.04256 18357 ft 364 kts 343°
2026-04-14 09:28 51.56016 0.03274 18979 ft 367 kts 343°
2026-04-14 09:29 51.58502 0.02288 19651 ft 368 kts 343°
2026-04-14 09:29 51.60988 0.01302 20347 ft 369 kts 342°
2026-04-14 09:29 51.63484 0.00309 21045 ft 369 kts 342°
2026-04-14 09:29 51.65979 -0.00688 21719 ft 370 kts 342°
2026-04-14 09:30 51.67638 -0.01352 22139 ft 371 kts 342°
2026-04-14 09:30 51.71001 -0.02692 22996 ft 373 kts 342°
2026-04-14 09:30 51.73517 -0.03691 23639 ft 374 kts 342°
2026-04-14 09:30 51.76052 -0.04702 24163 ft 375 kts 342°
2026-04-14 09:31 51.78591 -0.05718 24664 ft 377 kts 342°
2026-04-14 09:31 51.81141 -0.06740 25174 ft 378 kts 341°
2026-04-14 09:31 51.83694 -0.07766 25663 ft 379 kts 341°
2026-04-14 09:31 51.86263 -0.08803 26142 ft 380 kts 341°
2026-04-14 09:32 51.88837 -0.09841 26610 ft 382 kts 341°
2026-04-14 09:32 51.91421 -0.10881 27059 ft 383 kts 341°
2026-04-14 09:32 51.96613 -0.12978 27962 ft 386 kts 341°
2026-04-14 09:33 51.99226 -0.14033 28408 ft 388 kts 341°
2026-04-14 09:33 52.01852 -0.15096 28850 ft 389 kts 341°
2026-04-14 09:33 52.04484 -0.16163 29282 ft 391 kts 340°
2026-04-14 09:33 52.07130 -0.17237 29703 ft 393 kts 340°
2026-04-14 09:34 52.09792 -0.18317 30127 ft 395 kts 340°
2026-04-14 09:34 52.12462 -0.19403 30481 ft 396 kts 340°
2026-04-14 09:34 52.15144 -0.20492 30844 ft 398 kts 341°
2026-04-14 09:34 52.17833 -0.21583 31197 ft 399 kts 341°
2026-04-14 09:35 52.20531 -0.22679 31541 ft 400 kts 341°
2026-04-14 09:35 52.22317 -0.23408 31828 ft 399 kts 341°
2026-04-14 09:35 52.24997 -0.24507 32325 ft 396 kts 341°
2026-04-14 09:35 52.28547 -0.25966 33018 ft 391 kts 341°
2026-04-14 09:36 52.31149 -0.27028 33528 ft 389 kts 341°
2026-04-14 09:36 52.33783 -0.27989 34038 ft 387 kts 343°
2026-04-14 09:36 52.36425 -0.28833 34464 ft 386 kts 343°
2026-04-14 09:36 52.39074 -0.29617 34790 ft 387 kts 344°
2026-04-14 09:37 52.41734 -0.30391 35086 ft 389 kts 344°
2026-04-14 09:37 52.44396 -0.31176 35355 ft 391 kts 344°
2026-04-14 09:37 52.47081 -0.31990 35620 ft 392 kts 343°
2026-04-14 09:37 52.49771 -0.32825 35881 ft 394 kts 343°
2026-04-14 09:38 52.52467 -0.33678 36147 ft 396 kts 343°
2026-04-14 09:38 52.55171 -0.34543 36414 ft 397 kts 343°
2026-04-14 09:38 52.57890 -0.35417 36668 ft 399 kts 343°
2026-04-14 09:38 52.60622 -0.36293 36918 ft 400 kts 343°
2026-04-14 09:39 52.63362 -0.37166 37168 ft 402 kts 343°
2026-04-14 09:39 52.66110 -0.38039 37415 ft 403 kts 343°
2026-04-14 09:39 52.67940 -0.38620 37573 ft 404 kts 343°
2026-04-14 09:39 52.71640 -0.39799 37885 ft 406 kts 343°
2026-04-14 09:40 52.74420 -0.40684 38073 ft 408 kts 343°
2026-04-14 09:40 52.80011 -0.42476 38107 ft 409 kts 343°
2026-04-14 09:41 52.84665 -0.43962 38113 ft 410 kts 343°
2026-04-14 09:41 52.85611 -0.44264 38108 ft 410 kts 343°